Hourly Data Report for January 12, 2022

RANKIN INLET A
NUNAVUT
Current Station Operator: NAVCAN

62°48'38.000" N
92°06'53.000" W
32.30 m
2303405
71083
YRT

Download Data

Hourly Data (January 2022)
Hourly Data Report for January 12, 2022
TIME
LST
Temp Definition
°C
Dew Point Definition
°C
Rel Hum Definition
%
Precip. Amount Definition
mm

Wind Dir Definition
10's deg

Wind Spd Definition
km/h
Visibility Definition
km
Stn Press Definition
kPa
Hmdx Definition


Wind Chill Definition


Weather Definition


00:00 -31.8 -36.2 66   32 32 3.2 99.64   -48 Snow,Blowing Snow
01:00 -32.1 -36.5 66   31 31 4.8 99.65   -49 Ice Crystals,Blowing Snow
02:00 -31.7 -36.1 66   29 23 4.8 99.63   -46 Snow,Blowing Snow
03:00 -32.3 -36.8 65   30 21 4.8 99.58   -46 Snow,Blowing Snow
04:00 -31.3 -35.7 66   29 25 4.8 99.57   -46 Snow,Blowing Snow
05:00 -30.9 -35.2 67   30 32 2.4 99.53   -47 Snow,Blowing Snow
06:00 -30.8 -35.1 66   30 26 4.8 99.52   -46 Snow,Blowing Snow
07:00 -30.4 -34.7 67   31 33 3.2 99.48   -47 Snow,Blowing Snow
08:00 -30.3 -34.5 67   32 37 3.2 99.46   -47 Snow,Blowing Snow
09:00 -30.9 -35.2 67   32 32 9.7 99.48   -47 Snow,Blowing Snow
10:00 -31.1 -35.4 67   34 25 16.1 99.55   -46 Ice Crystals,Blowing Snow
11:00 -31.8 -36.2 66   34 23 16.1 99.62   -46 Ice Crystals,Blowing Snow
12:00 -31.6 -36.0 66   34 27 9.7 99.68   -47 Ice Crystals,Blowing Snow
13:00 -32.3 -36.8 65   34 27 16.1 99.78   -48 Ice Crystals,Blowing Snow
14:00 -33.2 -37.6 65   35 23 16.1 99.93   -48 Ice Crystals,Blowing Snow
15:00 -33.5 -38.0 65   36 30 16.1 100.08   -50 Ice Crystals,Blowing Snow
16:00 -34.1 -38.6 65   1 31 16.1 100.25   -51 Ice Crystals,Blowing Snow
17:00 -34.1 -38.6 65   1 35 16.1 100.46   -52 Ice Crystals,Blowing Snow
18:00 -34.1 -38.6 65   36 35 16.1 100.64   -52 Ice Crystals,Blowing Snow
19:00 -34.2 -38.7 65   1 31 16.1 100.79   -51 Ice Crystals,Blowing Snow
20:00 -34.2 -38.7 65   35 28 16.1 100.97   -51 Ice Crystals,Blowing Snow
21:00 -33.6 -38.1 65   1 32 16.1 101.09   -51 Ice Crystals,Blowing Snow
22:00 -33.4 -37.9 65   1 27 24.1 101.27   -49 Ice Crystals,Blowing Snow
23:00 -33.9 -38.5 64   34 28 24.1 101.43   -50 Ice Crystals,Blowing Snow

Notes on Data Quality.

Legend

  • E = Estimated
  • M = Missing
  • NA = Not Available*
  • [empty] = Indicates an unobserved value
Date modified: